Regional Weather Roundup
Issued by NWS Jackson, KY

Home | Current Version | Previous Version | Text Only | Print | Product List | Glossary Off
Versions: 1 2 3 4 5 6 7 8 9 10 11 12 13 14 15 16 17 18 19 20 21 22 23 24 25 26 27 28

000
ASUS43 KJKL 050610
RWRJKL

EAST KENTUCKY HOURLY WEATHER ROUNDUP
NATIONAL WEATHER SERVICE JACKSON KY
200 AM EDT THU MAY 05 2016

NOTE: "FAIR" INDICATES FEW OR NO CLOUDS BELOW 12,000 FEET WITH
NO SIGNIFICANT WEATHER AND/OR OBSTRUCTIONS TO VISIBILITY.

* THESE REPORTS ARE NOT UNDER NWS QUALITY CONTROL AND MAY NOT
  REPORT WEATHER SUCH AS PRECIPITATION AND FOG.

KYZ079-080-083-085-087-088-110-112-115-119-120-050700
...EASTERN KENTUCKY...

CITY           SKY/WX    TMP DP  RH WIND       PRES   REMARKS
JACKSON        CLEAR     43  40  89 NW5       29.75F
6HR MIN TEMP:  43; 6HR MAX TEMP:  49; 6HR PCP:  0.04;

LONDON         CLOUDY    45  44  97 W3        29.77F
6HR MIN TEMP:  45; 6HR MAX TEMP:  48; 6HR PCP: TRACE;

SOMERSET*      CLOUDY    46  46 100 CALM      29.80F
MONTICELLO*    MOCLDY    49  46  90 NW8       29.81F
6HR MIN TEMP:  48; 6HR MAX TEMP:  54; 6HR PCP:  0.19;

WILLIAMSBURG*  MOCLDY    45  45 100 CALM      29.78F
MIDDLESBORO*   CLOUDY    46  46 100 CALM      29.77F
6HR MIN TEMP:  45; 6HR MAX TEMP:  48; 6HR PCP:  0.11;

HARLAN APT*    CLOUDY    45  43  93 CALM      29.76S
HAZARD APT*    CLEAR     45  45 100 NW3       29.76S
BLACK MTN*       N/A     36  36 100 VRB5        N/A  WCI  32
PIKE CO APT*     N/A     44  44 100 W6        29.73F
BIG SANDY APT* CLEAR     45  44  99 CALM      29.74S
MOREHEAD APT*  CLEAR     43  39  87 CALM      29.77F
$$

KYZ035-036-041-042-044-050-067-078-099-050700
...CENTRAL KENTUCKY...

CITY           SKY/WX    TMP DP  RH WIND       PRES   REMARKS
MT STERLING*   CLEAR     37  37 100 NW5       29.78F WCI  34
FLEMING/MASON* CLEAR     40  37  88 W5        29.76F
DANVILLE*      CLEAR     45  39  81 CALM      29.80S
RICHMOND*      CLOUDY    46  36  66 NW6       29.78S
LEXINGTON      PTCLDY    43  36  76 CALM      29.77F
6HR MIN TEMP:  43; 6HR MAX TEMP:  55;

FRANKFORT      MOCLDY    46  37  71 W3        29.77F
6HR MIN TEMP:  45; 6HR MAX TEMP:  56;

LOUISVILLE     CLOUDY    50  38  63 NW7       29.79F
6HR MIN TEMP:  49; 6HR MAX TEMP:  57; 6HR PCP: TRACE;

LEBANON*         N/A     46  41  81 W5        29.80F
BOWLING GREEN  MOCLDY    51  41  68 NW3       29.84F
6HR MIN TEMP:  50; 6HR MAX TEMP:  62;

$$

KYZ091>093-OHZ055-061-077-WVZ005-015-034-035-042-050700
...SOUTHERN OHIO/WEST VIRGINIA...

CITY           SKY/WX    TMP DP  RH WIND       PRES   REMARKS
COVINGTON      LGT RAIN  45  36  70 W5        29.74F
COLUMBUS       PTCLDY    41  36  82 NE3       29.71F
DAYTON         CLOUDY    40  36  86 NW6       29.74S
WILMINGTON     PTCLDY    41  36  82 W6        29.72S
HUNTINGTON       N/A     47  44  90 NW3       29.73S
CHARLESTON     LGT RAIN  48  45  89 W5        29.70S FOG
PINEVILLE*     LGT RAIN  49  46  90 MISG      29.74S
BECKLEY        CLOUDY    45  42  89 SW3       29.68F
$$

VAZ002-007-008-TNZ017-027-036-066-071-050700
...SOUTHWEST VIRGINIA/EAST TENNESSEE...

CITY           SKY/WX    TMP DP  RH WIND       PRES   REMARKS
WISE*          CLOUDY    43  43 100 NW10G16   29.73F
BRISTOL        CLOUDY    47  44  90 W5        29.73F
MORRISTOWN*    CLOUDY    48  46  93 W5        29.75S
SEVIERVILLE*   MOCLDY    48  45  87 W3        29.76S
KNOXVILLE      LGT RAIN  50  45  83 NW12G22   29.77S
OAK RIDGE      LGT RAIN  49  43  80 NW3       29.78F
CROSSVILLE     CLOUDY    47  43  86 NW6       29.79F
NASHVILLE      PTCLDY    51  41  68 NW7       29.85F
$$

...KEY TO REMARKS...
VSB - VISIBILITY IN MILES
WCI - WIND CHILL INDEX
HX  - HEAT INDEX

$$




USA.gov is the U.S. government's official web portal to all federal, state and local government web resources and services.